Weather History for KIPL - October, 2013

Change the Weather History Date:

Tuesday, October 29, 2013

  Actual Average Record
Temperature  
Mean Temperature 66 °F -  
Max Temperature 73 °F 82 °F 98 °F (1965)
Min Temperature 59 °F 55 °F 42 °F (1971)
Cooling Degree Days 2    
Growing Degree Days 16 (Base 50)    
Moisture  
Dew Point 42 °F    
Average Humidity 45    
Maximum Humidity 57    
Minimum Humidity 29    
Precipitation  
Precipitation 0.00 in - - ()
Sea Level Pressure  
Sea Level Pressure 29.89 in    
Wind  
Wind Speed 10 mph (WNW)    
Max Wind Speed 16 mph    
Max Gust Speed 24 mph    
Visibility 10 miles    
Events      
Averages and records for this station are not official NWS values.
T = Trace of Precipitation, MM = Missing Value Source: NWS Daily Summary

Daily Weather History Graph

Daily Weather History Graph

Search for Another Location

Airport or City:

Trip Planner

Search our weather history database for the weather conditions in past years. The results will help you decide how hot, cold, wet, or windy it might be!

Date:

Astronomy

Oct. 29, 2013 Rise Set
Actual Time 6:57 AM PDT 5:53 PM PDT
Civil Twilight 6:32 AM PDT 6:19 PM PDT
Nautical Twilight 6:03 AM PDT 6:48 PM PDT
Astronomical Twilight 5:34 AM PDT 7:16 PM PDT
Moon 2:07 AM PDT (10/29) 2:55 PM PDT (10/29)
Length of Visible Light 11h 46m
Length of Day
10h 55m
Waning Crescent, 24% of the Moon is Illuminated
Oct 29
Waning Crescent
Nov 3
New
Nov 9
First Quarter
Nov 17
Full
Nov 25
Last Quarter

Hourly Weather History & Observations

Time (PDT) Temp. Dew Point Humidity Pressure Visibility Wind Dir Wind Speed Gust Speed Precip Events Conditions
12:53 AM 64.9 °F 43.0 °F 45% 29.87 in 10.0 mi West 6.9 mph - N/A   Clear
1:53 AM 64.0 °F 43.0 °F 46% 29.86 in 10.0 mi West 16.1 mph 21.9 mph N/A   Clear
2:53 AM 64.0 °F 43.0 °F 46% 29.85 in 10.0 mi NW 16.1 mph 23.0 mph N/A   Clear
3:53 AM 63.0 °F 42.1 °F 46% 29.87 in 10.0 mi WNW 6.9 mph - N/A   Clear
4:53 AM 62.1 °F 44.1 °F 52% 29.87 in 10.0 mi NW 6.9 mph - N/A   Mostly Cloudy
5:53 AM 60.1 °F 44.1 °F 55% 29.87 in 10.0 mi WNW 11.5 mph - N/A   Scattered Clouds
6:53 AM 60.1 °F 43.0 °F 53% 29.88 in 10.0 mi NW 4.6 mph - N/A   Partly Cloudy
7:53 AM 60.1 °F 45.0 °F 57% 29.91 in 10.0 mi Calm Calm - N/A   Mostly Cloudy
8:53 AM 63.0 °F 46.0 °F 54% 29.91 in 10.0 mi NNW 8.1 mph - N/A   Overcast
9:53 AM 63.0 °F 46.0 °F 54% 29.94 in 10.0 mi NNW 16.1 mph - N/A   Overcast
10:53 AM 64.9 °F 46.0 °F 50% 29.94 in 10.0 mi North 8.1 mph - N/A   Overcast
11:53 AM 66.9 °F 45.0 °F 45% 29.93 in 10.0 mi Calm Calm - N/A   Mostly Cloudy
12:53 PM 71.1 °F 44.1 °F 38% 29.90 in 10.0 mi North - - N/A   Scattered Clouds
1:53 PM 72.0 °F 43.0 °F 35% 29.87 in 10.0 mi West 9.2 mph - N/A   Partly Cloudy
2:53 PM 73.0 °F 39.0 °F 29% 29.86 in - West 11.5 mph 21.9 mph N/A   Clear
3:53 PM 72.0 °F 37.9 °F 29% 29.86 in - West 16.1 mph 24.2 mph N/A   Clear
4:53 PM 71.1 °F 37.9 °F 30% 29.86 in 10.0 mi West 10.4 mph - N/A   Clear
5:53 PM 66.9 °F 39.0 °F 36% 29.87 in 10.0 mi West 9.2 mph - N/A   Clear
6:53 PM 63.0 °F 39.9 °F 43% 29.89 in 10.0 mi WSW 10.4 mph - N/A   Clear
7:53 PM 63.0 °F 42.1 °F 46% 29.89 in 10.0 mi West 11.5 mph - N/A   Clear
8:53 PM 61.0 °F 41.0 °F 48% 29.91 in 10.0 mi West 10.4 mph - N/A   Clear
9:53 PM 62.1 °F 39.0 °F 43% 29.92 in 10.0 mi West 13.8 mph - N/A   Clear
10:53 PM 60.1 °F 37.9 °F 44% 29.93 in 10.0 mi West 11.5 mph - N/A   Clear
11:53 PM 59.0 °F 37.9 °F 46% 29.92 in 10.0 mi West 12.7 mph - N/A   Clear